FW1302 Weather Reports


time (UTC)temp
F
wind
direction
speed
knots
gust
knots
rain 1hr
in
rain 24hr
in
rain mn
in
humidity
%
barometer
mb
20260901160226 62 224 5.2 7.0 0.00 0.00 0.00 74 1022.6
20260901155224 62 227 6.1 7.8 0.00 0.00 0.00 75 1022.7
20260901154226 61 230 5.2 6.1 0.00 0.00 0.00 75 1022.7
20260901153224 61 223 6.1 9.6 0.00 0.00 0.00 77 1022.7
20260901152226 61 224 5.2 7.8 0.00 0.00 0.00 77 1022.8
20260901151224 61 218 5.2 7.0 0.00 0.00 0.00 76 1022.7
20260901145324 61 236 7.8 11.3 0.00 0.00 0.00 76 1022.6
20260901144323 61 231 6.1 8.7 0.00 0.00 0.00 75 1022.6
20260901143324 62 230 7.0 9.6 0.00 0.00 0.00 74 1022.5
20260901142324 62 225 5.2 7.0 0.00 0.00 0.00 74 1022.5
20260901141324 62 242 5.2 7.8 0.00 0.00 0.00 74 1022.4
20260901140338 61 240 5.2 7.0 0.00 0.00 0.00 75 1022.4
20260901135424 61 236 6.1 8.7 0.00 0.00 0.00 74 1022.4
20260901134427 62 225 7.8 10.4 0.00 0.00 0.00 74 1022.2
20260901133525 62 246 8.7 11.3 0.00 0.00 0.00 75 1022.1
20260901132625 61 222 7.0 9.6 0.00 0.00 0.00 74 1022.1
20260901131625 62 226 6.1 9.6 0.00 0.00 0.00 74 1022.0
20260901131524 62 233 7.8 11.3 0.00 0.00 0.00 74 1022.0
20260901124625 62 225 7.8 11.3 0.00 0.00 0.00 75 1021.9
20260901122626 62 237 9.6 16.5 0.00 0.00 0.00 74 1021.7
20260901121723 62 246 9.6 13.0 0.00 0.00 0.00 74 1021.7
20260901120724 62 223 9.6 16.5 0.00 0.00 0.00 74 1021.6
20260901115725 63 225 10.4 13.0 0.00 0.00 0.00 73 1021.4
20260901113823 63 227 10.4 13.9 0.00 0.00 0.00 72 1021.4
20260901112825 63 225 9.6 11.3 0.00 0.00 0.00 72 1021.3
20260901111823 63 227 7.8 13.9 0.00 0.00 0.00 72 1021.2
20260901110826 64 225 8.7 12.2 0.00 0.00 0.00 71 1021.2
20260901105925 64 236 11.3 16.5 0.00 0.00 0.00 70 1021.0
20260901104925 64 225 10.4 16.5 0.00 0.00 0.00 70 1021.0
20260901103926 64 228 8.7 12.2 0.00 0.00 0.00 70 1020.9
20260901102927 64 233 7.0 10.4 0.00 0.00 0.00 69 1021.0
20260901101925 65 246 7.8 12.2 0.00 0.00 0.00 68 1020.9
20260901100925 65 228 12.2 15.6 0.00 0.00 0.00 67 1020.7
20260901095923 66 228 10.4 13.9 0.00 0.00 0.00 66 1020.5
20260901093923 67 225 11.3 14.8 0.00 0.00 0.00 64 1020.2
20260901093022 67 226 9.6 12.2 0.00 0.00 0.00 64 1020.3
20260901092024 67 231 8.7 12.2 0.00 0.00 0.00 62 1020.2
20260901091123 68 225 13.9 18.2 0.00 0.00 0.00 62 1020.1
20260901090124 68 227 10.4 12.2 0.00 0.00 0.00 60 1020.0
20260901084123 69 226 9.6 13.0 0.00 0.00 0.00 59 1019.7
20260901084024 69 235 10.4 14.8 0.00 0.00 0.00 59 1019.5
20260901083025 70 228 7.0 10.4 0.00 0.00 0.00 59 1019.8
20260901082026 70 231 7.8 11.3 0.00 0.00 0.00 58 1019.5
20260901081025 70 236 11.3 17.4 0.00 0.00 0.00 58 1019.5
20260901075024 71 227 8.7 11.3 0.00 0.00 0.00 57 1019.4
20260901074027 71 226 10.4 13.0 0.00 0.00 0.00 57 1019.4
20260901073025 70 224 7.8 10.4 0.00 0.00 0.00 58 1019.2
20260901072926 70 223 7.8 9.6 0.00 0.00 0.00 58 1019.2
20260901071925 69 220 5.2 7.8 0.00 0.00 0.00 60 1019.2
20260901071023 66 199 3.5 8.7 0.00 0.00 0.00 67 1019.2
20260901065028 65 157 0.0 0.9 0.00 0.00 0.00 66 1019.0
20260901063128 65 157 0.0 0.9 0.00 0.00 0.00 64 1019.0
20260901062126 66 135 0.0 0.0 0.00 0.00 0.00 64 1019.0
20260901061128 66 135 0.0 0.0 0.00 0.00 0.00 61 1018.7
20260901060127 66 135 0.0 0.0 0.00 0.00 0.00 60 1018.7
20260901055129 66 135 0.0 0.0 0.00 0.00 0.00 58 1018.7
20260901054129 67 135 0.0 0.0 0.00 0.00 0.00 58 1018.6
20260901053127 68 135 0.0 0.0 0.00 0.00 0.00 56 1018.4
20260901052226 68 157 0.9 1.7 0.00 0.00 0.00 56 1018.3
20260901051325 68 157 0.0 0.0 0.00 0.00 0.00 55 1018.4
20260901045328 69 157 0.0 0.0 0.00 0.00 0.00 55 1018.4
20260901045226 69 157 0.0 0.0 0.00 0.00 0.00 56 1018.4
20260901044227 69 157 0.9 1.7 0.00 0.00 0.00 54 1018.4
20260901043229 70 157 0.0 0.9 0.00 0.00 0.00 53 1018.3
20260901042326 71 157 0.0 0.0 0.00 0.00 0.00 50 1018.0
20260901041328 72 157 0.9 0.9 0.00 0.00 0.00 50 1017.9
20260901040328 72 157 0.0 1.7 0.00 0.00 0.00 48 1017.8
20260901035327 73 157 0.0 0.0 0.00 0.00 0.00 47 1017.7
20260901034328 74 180 0.0 0.0 0.00 0.00 0.00 47 1017.6
20260901033327 74 180 0.0 0.0 0.00 0.00 0.00 47 1017.5
20260901032328 76 270 0.0 0.0 0.00 0.00 0.00 46 1017.2
20260901031328 79 225 0.0 0.0 0.00 0.00 0.00 43 1017.2
20260901030328 79 225 3.5 6.1 0.00 0.00 0.00 40 1017.1
20260901024525 80 204 2.6 7.8 0.00 0.00 0.00 39 1016.9
20260901022527 81 223 5.2 8.7 0.00 0.00 0.00 40 1016.6
20260901021529 81 220 6.1 10.4 0.00 0.00 0.00 40 1016.6
20260901020626 81 217 5.2 9.6 0.00 0.00 0.00 40 1016.5
20260901014725 80 225 7.0 8.7 0.00 0.00 0.00 37 1016.4
20260901013727 80 225 4.3 6.1 0.00 0.00 0.00 41 1016.3
20260901012728 80 45 0.0 0.0 0.00 0.00 0.00 41 1016.3
20260901011728 79 45 0.0 0.0 0.00 0.00 0.00 41 1016.3
20260901010826 79 45 0.0 0.0 0.00 0.00 0.00 44 1016.3
20260901005828 78 45 2.6 2.6 0.00 0.00 0.00 45 1016.4
20260901004829 80 45 4.3 6.1 0.00 0.00 0.00 47 1016.4
20260901003927 83 45 6.1 7.0 0.00 0.00 0.00 40 1016.4
20260901002928 85 45 7.0 8.7 0.00 0.00 0.00 27 1016.4
20260901002027 84 44 7.0 10.4 0.00 0.00 0.00 30 1016.4
20260901000027 83 45 7.8 10.4 0.00 0.00 0.00 32 1016.5
20260831235126 80 45 7.8 11.3 0.00 0.00 0.00 40 1016.5
20260831233226 82 46 8.7 13.0 0.00 0.00 0.00 32 1016.6
20260831232228 83 46 9.6 12.2 0.00 0.00 0.00 30 1016.6
20260831231227 83 45 9.6 14.8 0.00 0.00 0.00 31 1016.7
20260831230227 82 45 9.6 13.9 0.00 0.00 0.00 32 1016.8
20260831224227 82 45 8.7 13.9 0.00 0.00 0.00 29 1017.3
20260831223226 82 46 8.7 13.0 0.00 0.00 0.00 31 1017.3
20260831222226 81 40 8.7 12.2 0.00 0.00 0.00 32 1017.5
20260831221227 81 46 7.8 13.9 0.00 0.00 0.00 34 1017.6
20260831221128 81 49 8.7 13.9 0.00 0.00 0.00 33 1017.6
20260831220127 81 46 11.3 19.1 0.00 0.00 0.00 31 1017.6
20260831215126 78 45 10.4 13.0 0.00 0.00 0.00 42 1017.8
20260831214129 79 46 12.2 15.6 0.00 0.00 0.00 39 1017.8
20260831213225 79 46 11.3 17.4 0.00 0.00 0.00 36 1018.1
20260831212229 79 49 13.0 17.4 0.00 0.00 0.00 35 1018.3
20260831211326 79 46 11.3 17.4 0.00 0.00 0.00 34 1018.5
20260831210328 79 45 13.9 22.6 0.00 0.00 0.00 34 1018.4
20260831205426 78 46 12.2 16.5 0.00 0.00 0.00 34 1018.3
20260831203427 78 44 13.0 19.1 0.00 0.00 0.00 34 1018.8
20260831202427 77 46 9.6 16.5 0.00 0.00 0.00 37 1018.9
20260831201447 76 46 13.0 20.9 0.00 0.00 0.00 40 1019.0
20260831201326 76 46 13.0 19.1 0.00 0.00 0.00 39 1019.0
20260831200326 75 44 12.2 15.6 0.00 0.00 0.00 40 1019.2
20260831195425 75 46 13.0 20.9 0.00 0.00 0.00 41 1019.4
20260831194428 75 46 12.2 19.1 0.00 0.00 0.00 41 1019.7
20260831194326 74 45 11.3 18.2 0.00 0.00 0.00 42 1019.7
20260831193326 74 46 13.9 20.9 0.00 0.00 0.00 40 1019.4
20260831193225 74 46 13.9 21.7 0.00 0.00 0.00 41 1019.5
20260831192228 74 46 13.0 21.7 0.00 0.00 0.00 41 1019.8
20260831190327 73 45 13.9 20.0 0.00 0.00 0.00 41 1020.3
20260831185328 73 46 13.0 18.2 0.00 0.00 0.00 41 1020.3
20260831183427 73 46 13.0 23.5 0.00 0.00 0.00 43 1020.7
20260831183327 72 44 11.3 16.5 0.00 0.00 0.00 44 1020.8
20260831181426 72 47 11.3 18.2 0.00 0.00 0.00 45 1020.9
20260831180327 71 47 13.0 18.2 0.00 0.00 0.00 47 1020.9
20260831175326 71 42 10.4 20.0 0.00 0.00 0.00 48 1021.2
20260831174426 70 46 13.0 19.1 0.00 0.00 0.00 47 1021.3
20260831173426 70 44 10.4 15.6 0.00 0.00 0.00 47 1021.5
20260831172428 70 44 13.9 17.4 0.00 0.00 0.00 47 1021.3
20260831171426 70 46 9.6 15.6 0.00 0.00 0.00 47 1021.5
20260831170425 69 47 8.7 14.8 0.00 0.00 0.00 48 1021.7
20260831165426 69 45 9.6 13.9 0.00 0.00 0.00 49 1021.7
20260831164427 68 68 6.1 8.7 0.00 0.00 0.00 51 1021.9
20260831163525 67 43 6.1 11.3 0.00 0.00 0.00 54 1021.9
20260831161527 64 45 20.0 26.1 0.00 0.00 0.00 69 1021.8